Time,TemperatureF,DewpointF,PressureIn,WindDirection,WindDirectionDegrees,WindSpeedMPH,WindSpeedGustMPH,Humidity,HourlyPrecipIn,Conditions,Clouds,dailyrainin,SoftwareType,DateUTC
2013-03-17 00:02:00,41.0,1.0,-100.00,West,260,14.0,21.0,18,0.00,,,-99.99,,2013-03-17 06:02:00,
2013-03-17 00:12:00,38.0,6.0,-100.00,WSW,257,12.0,20.0,25,0.00,,,-99.99,,2013-03-17 06:12:00,
2013-03-17 00:22:00,37.0,4.0,-100.00,West,260,11.0,17.0,24,0.00,,,-99.99,,2013-03-17 06:22:00,
2013-03-17 00:32:00,38.0,3.0,-100.00,West,268,9.0,14.0,23,0.00,,,-99.99,,2013-03-17 06:32:00,
2013-03-17 00:42:00,36.0,7.0,-100.00,West,263,8.0,12.0,29,0.00,,,-99.99,,2013-03-17 06:42:00,
2013-03-17 00:52:00,37.0,5.0,-100.00,West,268,13.0,18.0,26,0.00,,,-99.99,,2013-03-17 06:52:00,
2013-03-17 01:02:00,37.0,5.0,-100.00,West,274,15.0,20.0,25,0.00,,,-99.99,,2013-03-17 07:02:00,
2013-03-17 01:12:00,36.0,6.0,-100.00,West,267,12.0,20.0,28,0.00,,,-99.99,,2013-03-17 07:12:00,
2013-03-17 01:22:00,36.0,4.0,-100.00,SSW,206,7.0,11.0,26,0.00,,,-99.99,,2013-03-17 07:22:00,
2013-03-17 01:32:00,33.0,7.0,-100.00,SSW,193,6.0,9.0,32,0.00,,,-99.99,,2013-03-17 07:32:00,
2013-03-17 01:42:00,32.0,8.0,-100.00,SW,215,4.0,7.0,36,0.00,,,-99.99,,2013-03-17 07:42:00,
2013-03-17 01:52:00,35.0,5.0,-100.00,South,179,6.0,13.0,28,0.00,,,-99.99,,2013-03-17 07:52:00,
2013-03-17 02:02:00,38.0,6.0,-100.00,SSE,164,9.0,22.0,26,0.00,,,-99.99,,2013-03-17 08:02:00,
2013-03-17 02:12:00,35.0,6.0,-100.00,SW,230,6.0,16.0,30,0.00,,,-99.99,,2013-03-17 08:12:00,
2013-03-17 02:22:00,38.0,5.0,-100.00,SSW,209,6.0,22.0,25,0.00,,,-99.99,,2013-03-17 08:22:00,
2013-03-17 02:32:00,34.0,6.0,-100.00,SW,217,11.0,18.0,31,0.00,,,-99.99,,2013-03-17 08:32:00,
2013-03-17 02:42:00,35.0,7.0,-100.00,SW,219,7.0,14.0,31,0.00,,,-99.99,,2013-03-17 08:42:00,
2013-03-17 02:52:00,32.0,8.0,-100.00,South,181,11.0,15.0,36,0.00,,,-99.99,,2013-03-17 08:52:00,
2013-03-17 03:02:00,35.0,5.0,-100.00,SSW,202,10.0,22.0,28,0.00,,,-99.99,,2013-03-17 09:02:00,
2013-03-17 03:12:00,39.0,4.0,-100.00,SE,141,12.0,24.0,22,0.00,,,-99.99,,2013-03-17 09:12:00,
2013-03-17 03:22:00,35.0,7.0,-100.00,South,185,10.0,19.0,29,0.00,,,-99.99,,2013-03-17 09:22:00,
2013-03-17 03:32:00,34.0,7.0,-100.00,South,176,10.0,12.0,31,0.00,,,-99.99,,2013-03-17 09:32:00,
2013-03-17 03:42:00,36.0,8.0,-100.00,South,184,11.0,14.0,30,0.00,,,-99.99,,2013-03-17 09:42:00,
2013-03-17 03:53:00,35.0,7.0,-100.00,South,171,9.0,14.0,30,0.00,,,-99.99,,2013-03-17 09:53:00,
2013-03-17 04:03:00,33.0,8.0,-100.00,South,169,9.0,11.0,34,0.00,,,-99.99,,2013-03-17 10:03:00,
2013-03-17 04:13:00,32.0,11.0,-100.00,South,171,7.0,11.0,41,0.00,,,-99.99,,2013-03-17 10:13:00,
2013-03-17 04:23:00,32.0,8.0,-100.00,SSE,154,9.0,12.0,36,0.00,,,-99.99,,2013-03-17 10:23:00,
2013-03-17 04:33:00,31.0,10.0,-100.00,SSE,157,11.0,17.0,41,0.00,,,-99.99,,2013-03-17 10:33:00,
2013-03-17 04:42:00,32.0,10.0,-100.00,SSE,162,16.0,21.0,39,0.00,,,-99.99,,2013-03-17 10:42:00,
2013-03-17 04:52:00,32.0,9.0,-100.00,SSE,161,17.0,24.0,38,0.00,,,-99.99,,2013-03-17 10:52:00,
2013-03-17 05:02:00,32.0,9.0,-100.00,SSE,158,17.0,22.0,38,0.00,,,-99.99,,2013-03-17 11:02:00,
2013-03-17 05:12:00,32.0,10.0,-100.00,SSE,165,16.0,21.0,39,0.00,,,-99.99,,2013-03-17 11:12:00,
2013-03-17 05:22:00,32.0,9.0,-100.00,SSE,162,16.0,21.0,38,0.00,,,-99.99,,2013-03-17 11:22:00,
2013-03-17 05:32:00,32.0,8.0,-100.00,SSE,158,17.0,21.0,36,0.00,,,-99.99,,2013-03-17 11:32:00,
2013-03-17 05:42:00,32.0,9.0,-100.00,SSE,154,17.0,22.0,38,0.00,,,-99.99,,2013-03-17 11:42:00,
2013-03-17 05:52:00,33.0,10.0,-100.00,SSE,147,16.0,20.0,38,0.00,,,-99.99,,2013-03-17 11:52:00,
2013-03-17 06:02:00,31.0,13.0,-100.00,SE,126,14.0,19.0,46,0.00,,,-99.99,,2013-03-17 12:02:00,
2013-03-17 06:12:00,31.0,12.0,-100.00,ESE,121,14.0,19.0,45,0.00,,,-99.99,,2013-03-17 12:12:00,
2013-03-17 06:22:00,32.0,13.0,-100.00,ESE,102,9.0,21.0,45,0.00,,,-99.99,,2013-03-17 12:22:00,
2013-03-17 06:32:00,32.0,14.0,-100.00,ESE,103,10.0,22.0,46,0.00,,,-99.99,,2013-03-17 12:32:00,
2013-03-17 06:42:00,31.0,15.0,-100.00,ESE,116,11.0,19.0,49,0.00,,,-99.99,,2013-03-17 12:42:00,
2013-03-17 06:52:00,32.0,15.0,-100.00,SE,124,11.0,21.0,49,0.00,,,-99.99,,2013-03-17 12:52:00,
2013-03-17 07:02:00,31.0,16.0,-100.00,ESE,116,13.0,20.0,53,0.00,,,-99.99,,2013-03-17 13:02:00,
2013-03-17 07:12:00,31.0,14.0,-100.00,SSE,164,9.0,20.0,48,0.00,,,-99.99,,2013-03-17 13:12:00,
2013-03-17 07:22:00,36.0,9.0,-100.00,West,265,17.0,26.0,33,0.00,,,-99.99,,2013-03-17 13:22:00,
2013-03-17 07:32:00,37.0,9.0,-100.00,WSW,250,27.0,37.0,31,0.00,,,-99.99,,2013-03-17 13:32:00,
2013-03-17 07:42:00,37.0,10.0,-100.00,WSW,247,29.0,37.0,32,0.00,,,-99.99,,2013-03-17 13:42:00,
2013-03-17 07:52:00,37.0,13.0,-100.00,WSW,250,37.0,47.0,36,0.00,,,-99.99,,2013-03-17 13:52:00,
2013-03-17 08:02:00,37.0,14.0,-100.00,WSW,248,34.0,42.0,38,0.00,,,-99.99,,2013-03-17 14:02:00,
2013-03-17 08:12:00,36.0,15.0,-100.00,WSW,250,34.0,43.0,41,0.00,,,-99.99,,2013-03-17 14:12:00,
2013-03-17 08:22:00,34.0,18.0,-100.00,WSW,256,27.0,40.0,50,0.00,,,-99.99,,2013-03-17 14:22:00,
2013-03-17 08:32:00,33.0,21.0,-100.00,West,260,29.0,39.0,61,0.00,,,-99.99,,2013-03-17 14:32:00,
2013-03-17 08:42:00,33.0,21.0,-100.00,West,261,29.0,37.0,59,0.00,,,-99.99,,2013-03-17 14:42:00,
2013-03-17 08:52:00,33.0,22.0,-100.00,WSW,256,28.0,35.0,63,0.00,,,-99.99,,2013-03-17 14:52:00,
2013-03-17 09:02:00,34.0,22.0,-100.00,WSW,248,22.0,32.0,63,0.00,,,-99.99,,2013-03-17 15:02:00,
2013-03-17 09:12:00,36.0,22.0,-100.00,WSW,250,21.0,39.0,56,0.00,,,-99.99,,2013-03-17 15:12:00,
2013-03-17 09:23:00,32.0,26.0,-100.00,WSW,248,27.0,40.0,77,0.00,,,-99.99,,2013-03-17 15:23:00,
2013-03-17 09:33:00,34.0,23.0,-100.00,WSW,254,22.0,30.0,65,0.00,,,-99.99,,2013-03-17 15:33:00,
2013-03-17 09:42:00,35.0,22.0,-100.00,West,260,24.0,30.0,60,0.00,,,-99.99,,2013-03-17 15:42:00,
2013-03-17 09:52:00,36.0,22.0,-100.00,WSW,253,30.0,39.0,55,0.00,,,-99.99,,2013-03-17 15:52:00,
2013-03-17 10:03:00,35.0,21.0,-100.00,WSW,253,34.0,44.0,56,0.00,,,-99.99,,2013-03-17 16:03:00,
2013-03-17 10:12:00,36.0,18.0,-100.00,WSW,254,32.0,48.0,48,0.00,,,-99.99,,2013-03-17 16:12:00,
2013-03-17 10:22:00,37.0,14.0,-100.00,WSW,258,46.0,58.0,40,0.00,,,-99.99,,2013-03-17 16:22:00,
2013-03-17 10:33:00,36.0,14.0,-100.00,WSW,256,48.0,61.0,40,0.00,,,-99.99,,2013-03-17 16:33:00,
2013-03-17 10:42:00,37.0,14.0,-100.00,WSW,256,45.0,55.0,38,0.00,,,-99.99,,2013-03-17 16:42:00,
2013-03-17 10:52:00,37.0,13.0,-100.00,West,260,42.0,52.0,35,0.00,,,-99.99,,2013-03-17 16:52:00,
2013-03-17 11:02:00,38.0,11.0,-100.00,WSW,257,36.0,45.0,32,0.00,,,-99.99,,2013-03-17 17:02:00,
2013-03-17 11:12:00,38.0,13.0,-100.00,WSW,257,37.0,46.0,35,0.00,,,-99.99,,2013-03-17 17:12:00,
2013-03-17 11:22:00,38.0,14.0,-100.00,WSW,251,32.0,43.0,37,0.00,,,-99.99,,2013-03-17 17:22:00,
2013-03-17 11:33:00,38.0,14.0,-100.00,WSW,253,32.0,40.0,36,0.00,,,-99.99,,2013-03-17 17:33:00,
2013-03-17 11:42:00,38.0,15.0,-100.00,WSW,253,34.0,42.0,38,0.00,,,-99.99,,2013-03-17 17:42:00,
2013-03-17 11:52:00,38.0,10.0,-100.00,WSW,256,38.0,55.0,31,0.00,,,-99.99,,2013-03-17 17:52:00,
2013-03-17 12:02:00,38.0,9.0,-100.00,WSW,258,40.0,55.0,30,0.00,,,-99.99,,2013-03-17 18:02:00,
2013-03-17 12:12:00,39.0,11.0,-100.00,WSW,258,40.0,55.0,31,0.00,,,-99.99,,2013-03-17 18:12:00,
2013-03-17 12:22:00,36.0,15.0,-100.00,West,261,37.0,49.0,41,0.00,,,-99.99,,2013-03-17 18:22:00,
2013-03-17 12:32:00,37.0,16.0,-100.00,West,260,37.0,48.0,42,0.00,,,-99.99,,2013-03-17 18:32:00,
2013-03-17 12:42:00,37.0,17.0,-100.00,West,261,37.0,51.0,45,0.00,,,-99.99,,2013-03-17 18:42:00,
2013-03-17 12:52:00,39.0,13.0,-100.00,West,263,35.0,49.0,33,0.00,,,-99.99,,2013-03-17 18:52:00,
2013-03-17 13:02:00,38.0,13.0,-100.00,West,268,35.0,48.0,35,0.00,,,-99.99,,2013-03-17 19:02:00,
2013-03-17 13:12:00,38.0,16.0,-100.00,West,271,32.0,43.0,41,0.00,,,-99.99,,2013-03-17 19:12:00,
2013-03-17 13:22:00,37.0,11.0,-100.00,West,271,34.0,46.0,33,0.00,,,-99.99,,2013-03-17 19:22:00,
2013-03-17 13:33:00,37.0,15.0,-100.00,West,270,37.0,50.0,39,0.00,,,-99.99,,2013-03-17 19:33:00,
2013-03-17 13:42:00,39.0,12.0,-100.00,West,277,36.0,49.0,33,0.00,,,-99.99,,2013-03-17 19:42:00,
2013-03-17 13:53:00,38.0,10.0,-100.00,West,270,39.0,60.0,30,0.00,,,-99.99,,2013-03-17 19:53:00,
2013-03-17 14:02:00,39.0,9.0,-100.00,West,261,35.0,54.0,29,0.00,,,-99.99,,2013-03-17 20:02:00,
2013-03-17 14:12:00,38.0,8.0,-100.00,West,260,41.0,63.0,29,0.00,,,-99.99,,2013-03-17 20:12:00,
2013-03-17 14:22:00,38.0,12.0,-100.00,West,270,39.0,54.0,35,0.00,,,-99.99,,2013-03-17 20:22:00,
2013-03-17 14:32:00,38.0,12.0,-100.00,West,265,38.0,49.0,33,0.00,,,-99.99,,2013-03-17 20:32:00,
2013-03-17 14:42:00,38.0,10.0,-100.00,West,271,41.0,54.0,31,0.00,,,-99.99,,2013-03-17 20:42:00,
2013-03-17 14:52:00,37.0,9.0,-100.00,West,271,44.0,57.0,30,0.00,,,-99.99,,2013-03-17 20:52:00,
2013-03-17 15:02:00,36.0,15.0,-100.00,West,270,39.0,52.0,41,0.00,,,-99.99,,2013-03-17 21:02:00,
2013-03-17 15:12:00,35.0,18.0,-100.00,West,274,37.0,49.0,49,0.00,,,-99.99,,2013-03-17 21:12:00,
2013-03-17 15:22:00,36.0,8.0,-100.00,West,268,42.0,60.0,30,0.00,,,-99.99,,2013-03-17 21:22:00,
2013-03-17 15:33:00,36.0,7.0,-100.00,West,280,39.0,55.0,29,0.00,,,-99.99,,2013-03-17 21:33:00,
2013-03-17 15:42:00,35.0,7.0,-100.00,WNW,284,41.0,55.0,31,0.00,,,-99.99,,2013-03-17 21:42:00,
2013-03-17 15:52:00,36.0,10.0,-100.00,West,281,37.0,51.0,34,0.00,,,-99.99,,2013-03-17 21:52:00,
2013-03-17 16:03:00,35.0,13.0,-100.00,West,281,34.0,49.0,40,0.00,,,-99.99,,2013-03-17 22:03:00,
2013-03-17 16:12:00,34.0,9.0,-100.00,West,281,36.0,48.0,35,0.00,,,-99.99,,2013-03-17 22:12:00,
2013-03-17 16:23:00,35.0,9.0,-100.00,West,275,36.0,49.0,34,0.00,,,-99.99,,2013-03-17 22:23:00,
2013-03-17 16:33:00,33.0,10.0,-100.00,West,275,38.0,58.0,38,0.00,,,-99.99,,2013-03-17 22:33:00,
2013-03-17 16:42:00,34.0,10.0,-100.00,West,278,34.0,44.0,36,0.00,,,-99.99,,2013-03-17 22:42:00,
2013-03-17 16:52:00,31.0,16.0,-100.00,West,281,32.0,48.0,53,0.00,,,-99.99,,2013-03-17 22:52:00,
2013-03-17 17:02:00,32.0,13.0,-100.00,West,275,35.0,50.0,44,0.00,,,-99.99,,2013-03-17 23:02:00,
2013-03-17 17:12:00,32.0,9.0,-100.00,West,272,39.0,54.0,37,0.00,,,-99.99,,2013-03-17 23:12:00,
2013-03-17 17:22:00,33.0,6.0,-100.00,West,274,42.0,58.0,31,0.00,,,-99.99,,2013-03-17 23:22:00,
2013-03-17 17:33:00,32.0,3.0,-100.00,WNW,282,42.0,55.0,30,0.00,,,-99.99,,2013-03-17 23:33:00,
2013-03-17 17:42:00,32.0,0.0,-100.00,West,271,48.0,60.0,25,0.00,,,-99.99,,2013-03-17 23:42:00,
2013-03-17 17:52:00,31.0,1.0,-100.00,West,275,43.0,58.0,27,0.00,,,-99.99,,2013-03-17 23:52:00,
2013-03-17 18:03:00,30.0,-1.0,-100.00,WNW,284,52.0,64.0,26,0.00,,,-99.99,,2013-03-18 00:03:00,
2013-03-17 18:12:00,31.0,-1.0,-100.00,WNW,285,49.0,63.0,26,0.00,,,-99.99,,2013-03-18 00:12:00,
2013-03-17 18:22:00,29.0,1.0,-100.00,WNW,285,32.0,43.0,29,0.00,,,-99.99,,2013-03-18 00:22:00,
2013-03-17 18:33:00,29.0,1.0,-100.00,WNW,284,36.0,56.0,30,0.00,,,-99.99,,2013-03-18 00:33:00,
2013-03-17 18:42:00,28.0,-1.0,-100.00,WNW,295,39.0,53.0,28,0.00,,,-99.99,,2013-03-18 00:42:00,
2013-03-17 18:52:00,27.0,-1.0,-100.00,WNW,294,41.0,53.0,28,0.00,,,-99.99,,2013-03-18 00:52:00,
2013-03-17 19:02:00,27.0,-3.0,-100.00,WNW,288,40.0,54.0,27,0.00,,,-99.99,,2013-03-18 01:02:00,
2013-03-17 19:12:00,27.0,-4.0,-100.00,WNW,288,40.0,55.0,25,0.00,,,-99.99,,2013-03-18 01:12:00,
2013-03-17 19:22:00,27.0,-1.0,-100.00,WNW,291,37.0,49.0,29,0.00,,,-99.99,,2013-03-18 01:22:00,
2013-03-17 19:32:00,26.0,-1.0,-100.00,WNW,296,42.0,54.0,30,0.00,,,-99.99,,2013-03-18 01:32:00,
2013-03-17 19:42:00,26.0,-1.0,-100.00,WNW,296,40.0,49.0,31,0.00,,,-99.99,,2013-03-18 01:42:00,
2013-03-17 19:52:00,25.0,1.0,-100.00,WNW,295,40.0,54.0,35,0.00,,,-99.99,,2013-03-18 01:52:00,
2013-03-17 20:02:00,24.0,5.0,-100.00,NW,304,35.0,52.0,42,0.00,,,-99.99,,2013-03-18 02:02:00,
2013-03-17 20:12:00,24.0,4.0,-100.00,NW,305,39.0,52.0,42,0.00,,,-99.99,,2013-03-18 02:12:00,
2013-03-17 20:22:00,24.0,4.0,-100.00,WNW,294,37.0,49.0,43,0.00,,,-99.99,,2013-03-18 02:22:00,
2013-03-17 20:32:00,23.0,5.0,-100.00,WNW,292,37.0,50.0,45,0.00,,,-99.99,,2013-03-18 02:32:00,
2013-03-17 20:42:00,23.0,7.0,-100.00,WNW,291,37.0,52.0,50,0.00,,,-99.99,,2013-03-18 02:42:00,
2013-03-17 20:52:00,23.0,5.0,-100.00,WNW,289,35.0,48.0,47,0.00,,,-99.99,,2013-03-18 02:52:00,
2013-03-17 21:02:00,23.0,4.0,-100.00,WNW,289,35.0,45.0,44,0.00,,,-99.99,,2013-03-18 03:02:00,
2013-03-17 21:11:00,22.0,6.0,-100.00,WNW,289,35.0,50.0,49,0.00,,,-99.99,,2013-03-18 03:11:00,
2013-03-17 21:22:00,22.0,6.0,-100.00,WNW,289,32.0,44.0,50,0.00,,,-99.99,,2013-03-18 03:22:00,
2013-03-17 21:33:00,20.0,12.0,-100.00,WNW,299,35.0,48.0,70,0.00,,,-99.99,,2013-03-18 03:33:00,
2013-03-17 21:42:00,22.0,6.0,-100.00,WNW,288,34.0,48.0,50,0.00,,,-99.99,,2013-03-18 03:42:00,
2013-03-17 21:52:00,22.0,6.0,-100.00,WNW,288,34.0,46.0,49,0.00,,,-99.99,,2013-03-18 03:52:00,
2013-03-17 22:03:00,22.0,5.0,-100.00,WNW,292,30.0,41.0,46,0.00,,,-99.99,,2013-03-18 04:03:00,
2013-03-17 22:13:00,22.0,5.0,-100.00,WNW,291,29.0,38.0,46,0.00,,,-99.99,,2013-03-18 04:13:00,
2013-03-17 22:22:00,22.0,4.0,-100.00,WNW,288,31.0,40.0,46,0.00,,,-99.99,,2013-03-18 04:22:00,
2013-03-17 22:33:00,22.0,6.0,-100.00,WNW,289,30.0,39.0,49,0.00,,,-99.99,,2013-03-18 04:33:00,
2013-03-17 22:42:00,22.0,4.0,-100.00,WNW,292,27.0,41.0,45,0.00,,,-99.99,,2013-03-18 04:42:00,
2013-03-17 22:52:00,22.0,4.0,-100.00,WNW,288,33.0,42.0,45,0.00,,,-99.99,,2013-03-18 04:52:00,
2013-03-17 23:02:00,22.0,4.0,-100.00,WNW,289,32.0,41.0,45,0.00,,,-99.99,,2013-03-18 05:02:00,
2013-03-17 23:12:00,22.0,3.0,-100.00,WNW,292,32.0,41.0,44,0.00,,,-99.99,,2013-03-18 05:12:00,
2013-03-17 23:22:00,22.0,-1.0,-100.00,WNW,298,37.0,46.0,36,0.00,,,-99.99,,2013-03-18 05:22:00,
2013-03-17 23:32:00,21.0,3.0,-100.00,WNW,295,32.0,41.0,45,0.00,,,-99.99,,2013-03-18 05:32:00,
2013-03-17 23:43:00,21.0,3.0,-100.00,WNW,294,30.0,39.0,45,0.00,,,-99.99,,2013-03-18 05:43:00,
2013-03-17 23:52:00,21.0,3.0,-100.00,WNW,291,32.0,40.0,46,0.00,,,-99.99,,2013-03-18 05:52:00,